Location: Newark
(43.0000°N, 1.6781°W)
Time: 08:07:38
(UTC+00:00)

Vanguard 1 - Pass Details

Date: 10 December 2021
Orbit: 652 x 3830 km, 34.2° (Epoch: 16 January)

Event Time Altitude Azimuth Distance (km) Brightness Sun altitude
Rises 19:49:34 0° 197° (SSW) 5,605 14.1 -35.2°
Reaches altitude 10° 19:53:34 10° 186° (S) 5,039 13.7 -35.9°
Enters shadow 20:02:26 27° 150° (SSE) 4,587 13.1 -37.6°
